1301273429260,0.000149623
1301273489260,0.000150620
1301273549260,0.000150400
1301273609260,0.000150896
1301273669260,0.000150808
1301277029272,0.000149119
1301277089272,0.000148527
1301277149272,0.000148988
1301277209272,0.000149923
1301277269272,0.000150540
1301280629284,0.000149054
1301280689284,0.000149477
1301280749284,0.000148735
1301280809284,0.000149671
1301280869284,0.000149104
1301284229297,0.000148451
1301284289297,0.000150157
1301284349297,0.000150510
1301284409297,0.000149160
1301284469297,0.000150793
1301287829309,0.000148323
1301287889309,0.000148233
1301287949309,0.000148966
1301288009309,0.000148942
1301288069309,0.000150161
1301291429321,0.000149998
1301291489321,0.000148777
1301291549321,0.000148193
1301291609321,0.000148917
1301291669321,0.000147631
1301305829366,0.000146993
1301305889366,0.000146981
1301305949366,0.000147840
1301306009366,0.000146471
1301306069366,0.000147321
1301309429378,0.000144874
1301309489378,0.000144662
1301309549378,0.000145459
1301309609378,0.000143641
1301309669378,0.000145278
1301313029390,0.000147999
1301313089390,0.000147966
1301313149390,0.000147954
1301313209390,0.000147044
1301313269390,0.000147208
1301316629402,0.000146545
1301316689402,0.000145368
1301316749402,0.000144878
1301316809402,0.000145861
1301316869402,0.000146062
1301320229414,0.000145308
1301320289414,0.000146252
1301320349414,0.000145019
1301320409414,0.000145494
1301320469414,0.000148478
1301320529414,0.000145976
1301320589414,0.000147211
1301320649414,0.000146361
1301320709414,0.000146363
1301320769414,0.000146455
1301320829425,0.000145171
1301320889425,0.000146884
1301320949425,0.000145798
1301321009425,0.000146424
1301321069425,0.000146368
1301321129425,0.000146393
1301321189425,0.000146013
1301321249425,0.000147120
1301321309425,0.000147248
1301321369425,0.000145715
1301321429425,0.000145699
1301321489425,0.000146418
1301321549425,0.000147738
1301321609425,0.000145263
1301321669425,0.000147773
1301321729425,0.000146825
1301321789425,0.000146057
1301321849425,0.000147218
1301321909425,0.000148025
1301321969425,0.000147535
1301322029425,0.000147154
1301322089425,0.000146753
1301322149425,0.000147202
1301322209425,0.000147967
1301322269426,0.000146627
1301322329425,0.000146748
1301322389425,0.000147173
1301322449425,0.000146991
1301322509425,0.000147594
1301322569425,0.000146440
1301322629425,0.000146490
1301322689425,0.000147074
1301322749425,0.000147324
1301322809425,0.000147673
1301322869425,0.000146334
1301322929425,0.000145598
1301322989425,0.000146810
1301323049425,0.000146881
1301323109425,0.000147272
1301323169425,0.000146838
1301323229425,0.000144627
1301323289425,0.000147730
1301323349425,0.000147175
1301323409425,0.000148206
1301323469425,0.000147079
1301323529425,0.000146683
1301323589425,0.000147052
1301323649425,0.000147426
1301323709425,0.000146459
1301323769425,0.000145977
1301323829425,0.000147007
1301323889425,0.000145636
1301323949425,0.000147240
1301324009425,0.000145572
1301324069425,0.000147202
1301324129425,0.000145772
1301324189425,0.000146710
1301324249425,0.000145934
1301324309425,0.000146168
1301324369425,0.000145096
1301324429437,0.000145911
1301324489437,0.000146063
1301324549437,0.000145968
1301324609437,0.000147687
1301324669437,0.000147019
1301324729437,0.000146535
1301324789437,0.000146073
1301324849437,0.000146893
1301324909437,0.000146060
1301324969437,0.000145804
1301325029437,0.000146455
1301325089437,0.000146316
1301325149437,0.000146631
1301325209437,0.000146361
1301325269437,0.000148000
1301325329437,0.000147328
1301325389437,0.000147974
1301325449437,0.000147192
1301325509437,0.000147172
1301325569437,0.000146970
1301325629437,0.000148053
1301325689437,0.000147926
1301325749437,0.000147942
1301325809437,0.000147801
1301325869437,0.000147285
1301325929437,0.000147964
1301325989437,0.000147594
1301326049437,0.000147113
1301326109437,0.000147041
1301326169437,0.000148865
1301326229437,0.000147603
1301326289437,0.000147814
1301326349437,0.000148565
1301326409437,0.000147923
1301326469437,0.000149221
1301326529437,0.000147903
1301326589437,0.000149521
1301326649437,0.000148257
1301326709437,0.000148988
1301326769437,0.000147125
1301326829437,0.000148421
1301326889437,0.000147681
1301326949437,0.000147574
1301327009437,0.000148023
1301327069437,0.000149087
1301327129437,0.000147885
1301327189437,0.000149491
1301327249437,0.000149980
1301327309437,0.000162114
1301327369437,0.000150126
1301327429437,0.000149707
1301327489437,0.000149898
1301327549437,0.000148956
1301327609437,0.000149881
1301327669437,0.000150269
1301327729437,0.000149743
1301327789437,0.000149660
1301327849437,0.000149009
1301327909437,0.000148875
1301327969437,0.000148117
1301328029449,0.000148687
1301328089449,0.000149750
1301328149449,0.000146735
1301328209449,0.000148975
1301328269449,0.000148928
1301328329449,0.000147649
1301328389449,0.000148823
1301328449449,0.000147926
1301328509449,0.000148152
1301328569449,0.000148692
1301328629449,0.000148373
1301328689449,0.000149079
1301328749449,0.000148734
1301328809449,0.000148522
1301328869449,0.000149421
1301328929449,0.000147816
1301328989449,0.000148244
1301329049449,0.000148400
1301329109449,0.000147656
1301329169449,0.000148964
1301329229449,0.000149232
1301329289449,0.000149428
1301329349449,0.000148318
1301329409449,0.000148990
1301329469449,0.000148367
1301329529449,0.000147744
1301329589449,0.000148785
1301329649449,0.000148172
1301329709449,0.000154097
1301329769449,0.000149528
1301329829449,0.000147613
1301329889449,0.000148489
1301329949449,0.000148730
1301330009449,0.000147296
1301330069449,0.000150270
1301330129449,0.000147885
1301330189449,0.000148893
1301330249449,0.000147527
1301330309449,0.000149774
1301330369449,0.000148169
1301330429449,0.000148929
1301330489449,0.000148332
1301330549449,0.000148780
1301330609449,0.000149893
1301330669449,0.000149729
1301330729449,0.000151687
1301330789449,0.000155129
1301330849449,0.000151516
1301330909449,0.000150150
1301330969449,0.000149628
1301331029449,0.000149268
1301331089449,0.000149207
1301331149449,0.000148750
1301331209449,0.000148830
1301331269449,0.000150336
1301334629460,0.000147860
1301334689460,0.000149102
1301334749460,0.000148606
1301334809460,0.000148162
1301334869460,0.000148588
1301338229472,0.000149350
1301338289472,0.000149474
1301338349472,0.000150891
1301338409472,0.000151376
1301338469472,0.000153322
1301341829483,0.000150220
1301341889483,0.000150150
1301341949483,0.000149322
1301342009483,0.000150413
1301342069483,0.000149615
1301345429495,0.000151721
1301345489495,0.000149644
1301345549495,0.000150847
1301345609495,0.000151261
1301345669495,0.000152430
1301349029506,0.000153460
1301349089506,0.000151474
1301349149506,0.000151996
1301349209506,0.000152971
1301349269506,0.000152747
1301352629518,0.000154353
1301352689518,0.000152673
1301352749518,0.000153089
1301352809518,0.000154106
1301352869518,0.000155669
1301356229530,0.000154396
1301356289530,0.000155720
1301356349530,0.000154840
1301356409530,0.000155209
1301356469530,0.000155350
